#timestamp,LO_Frequency,Hit,StdDev 
1502924415.8,286046999.9,N,0.2
1502924435.6,286047002.3,Y,0.0
1502924455.5,286046999.8,P,0.2
1502924475.3,286046999.9,N,0.2
1502924495.1,286042622.4,P,1895.5
1502924515.9,286047002.7,N,1751.3
1502924535.7,286047002.0,N,1631.8
1502924555.6,286047002.3,N,1532.2
1502924605.4,286047002.4,E,nan
1502924615.3,286047000.7,N,0.0
1502924635.2,286046999.0,P,0.9
1502924655.0,286046998.6,N,0.9
1502924655.9,286046998.6,N,0.9
1502924675.8,286046998.5,N,0.8
1502924695.6,286046998.2,N,0.8
1502924715.4,286047001.0,N,1.1
1502924735.3,286047000.7,N,1.1
1502924755.1,286047000.8,N,1.1
1502924775.9,286047011.9,Y,0.0
1502924795.7,286047000.4,P,0.4
1502924815.5,286047000.7,N,0.5
1502924835.4,286046999.9,N,0.4
1502924855.2,286047000.0,N,0.4
1502924875.1,286047000.4,N,0.4
1502924876.0,286047000.4,N,0.4
1502924895.8,286047000.6,N,0.4
1502924915.6,286047000.2,N,0.3
1502924935.5,286047000.1,N,0.3
1502924955.3,286047000.0,N,0.3
1502924975.1,286047000.0,N,0.3
1502924995.9,286046999.9,N,0.3
1502925015.7,286047000.0,N,0.3
1502925035.6,286046999.8,N,0.3
1502925055.4,286046999.8,N,0.3
1502925075.2,286047000.1,N,0.3
1502925095.1,286682705.3,Y,0.0
1502925096.0,286046999.8,P,0.2
1502925115.8,286047000.7,P,0.4
1502925135.7,286047000.3,N,0.3
1502925155.5,286046999.9,N,0.3
1502925175.3,286047001.0,Y,0.0
1502925195.2,286047000.0,P,0.1
1502925215.0,286046999.9,N,0.1
1502925215.9,286046999.9,N,0.1
1502925235.8,286046999.9,N,0.1
1502925255.6,286047000.0,N,0.1
1502925275.4,286047000.3,N,0.1
1502925295.3,286047000.3,N,0.2
1502925315.1,286047002.8,Y,0.0
1502925335.9,286047000.0,P,0.0
1502925355.7,286046998.5,P,0.7
1502925375.5,286046998.1,N,0.9
1502925395.4,286046998.1,N,0.9
1502925415.2,286046998.5,N,0.8
1502925435.0,286046999.7,N,0.8
1502925435.9,286046999.7,N,0.8
1502925455.8,286047002.6,Y,0.0
1502925475.6,286047002.6,P,1.8
1502925495.5,286047000.2,N,1.5
1502925515.3,286046999.8,N,1.3
1502925535.1,286047002.8,N,1.5
1502925555.9,286047002.8,N,1.6
1502925575.7,286047001.9,N,1.5
1502925595.6,286047001.9,N,1.4
1502925615.4,286047002.4,N,1.3
1502925635.2,286047002.3,N,1.3
1502925655.1,286047002.0,N,1.2
1502925656.0,286047002.0,N,1.2
1502925675.8,286047001.9,N,1.1
1502925695.7,286047001.9,N,1.1
1502925715.5,286047001.5,N,1.1
1502925735.3,286047001.5,N,1.0
1502925755.2,286047001.7,N,1.0
1502925775.0,286047001.5,N,1.0
1502925775.9,286047001.5,N,1.0
1502925795.8,286047002.6,N,1.0
1502925815.6,286047001.9,N,0.9
1502925835.4,286047001.9,N,0.9
1502925855.3,286047001.9,N,0.9
1502925875.1,286047002.8,Y,0.0
1502925895.8,286047000.7,P,0.5
1502925915.7,286046999.8,N,0.8
1502925935.5,286047002.4,P,1.0
1502925955.4,286046999.9,N,1.0
1502925975.2,286046999.8,N,1.0
1502925995.0,286047000.1,N,1.0
1502925995.9,286047000.1,N,0.9
1502926015.8,286047002.4,N,1.0
1502926035.6,286047002.5,N,1.1
1502926055.5,286047001.7,N,1.1
1502926075.3,286047001.6,N,1.1
1502926095.1,286047002.2,N,1.1
1502926115.9,286047000.0,N,1.1
1502926135.7,286047002.8,N,1.1
1502926155.6,286046999.8,N,1.1
1502926175.4,286046999.7,N,1.1
1502926195.2,286046999.8,N,1.1
1502926215.1,286047000.5,N,1.1
1502926216.0,286047000.5,N,1.1
1502926235.8,286047000.9,N,1.1
1502926255.7,286047000.5,N,1.0
1502926275.5,286047002.8,N,1.1
1502926295.3,286047000.2,N,1.1
1502926315.2,286047000.1,N,1.1
1502926335.0,286046999.8,N,1.1
1502926335.9,286046999.8,N,1.1
1502926355.7,286047002.8,N,1.1
1502926375.6,286046999.7,N,1.1
1502926395.4,286047002.4,N,1.1
1502926415.3,286047002.0,N,1.1
1502926435.1,286047002.5,N,1.2
1502926455.8,286047002.1,N,1.2
1502926475.7,286047001.5,N,1.1
1502926495.5,286047001.6,N,1.1
1502926515.4,286047001.9,N,1.1
1502926535.2,286047001.7,N,1.1
1502926555.0,286047002.5,N,1.1
1502926555.9,286047002.5,N,1.1
1502926575.8,286047002.2,N,1.1
1502926595.6,286047002.1,N,1.1
1502926615.5,286047002.1,N,1.1
1502926635.3,286047002.1,N,1.1
1502926655.1,286046999.8,N,1.1
1502926675.9,286047002.8,N,1.1
1502926695.7,286047000.4,N,1.1
1502926745.6,286047000.5,E,nan
1502926755.5,286046998.7,N,0.0
1502926775.3,286046999.1,P,0.2
1502926795.2,286046998.9,P,0.2
1502926815.0,286046998.2,Y,0.0
1502926815.9,286046998.2,P,0.4
1502926835.8,286047000.4,N,0.9
1502926855.6,286047001.0,N,1.1
1502926875.4,286047001.2,N,1.2
1502926895.3,286046998.6,N,1.2
1502926915.1,286046998.4,N,1.2
1502926935.9,286046998.7,N,1.2
1502926955.7,286046996.5,Y,0.0
1502926975.5,286046999.4,P,0.0
1502926995.4,286046998.7,P,0.3
1502927015.2,286046998.8,P,0.3
1502927035.1,286046996.8,Y,0.0
1502927036.0,286046996.8,P,1.1
1502927055.8,286046996.8,N,1.1
1502927075.6,286046995.6,P,1.3
1502927095.5,286046995.3,Y,0.0
1502927115.3,286046998.4,P,0.7
1502927135.2,286046998.7,N,0.7
1502927155.9,286046999.0,N,0.7
1502927175.7,286046999.5,N,0.8
1502927195.6,286046999.5,N,0.8
1502927215.4,286046999.5,N,0.8
1502927235.2,286046998.7,N,0.8
1502927255.1,286046998.8,N,0.7
1502927256.0,286046998.8,N,0.7
1502927275.8,286046999.3,N,0.7
1502927295.7,286046996.8,Y,0.0
1502927315.5,286046998.1,P,0.4
1502927335.3,286047000.8,N,1.1
1502927355.2,286046999.1,N,1.0
1502927375.0,286046999.2,N,0.9
1502927375.9,286046999.2,N,0.8
1502927395.8,286046996.6,Y,0.0
1502927415.6,286046998.5,P,0.4
1502927435.4,286046998.3,P,0.4
1502927455.3,286046998.2,P,0.4
1502927475.1,286047000.9,N,1.0
1502927495.8,286047000.3,N,1.0
1502927515.7,286047000.6,N,1.1
1502927535.5,286046998.1,N,1.1
1502927555.4,286046998.2,N,1.1
1502927575.2,286046998.6,N,1.0
1502927595.0,286046996.6,Y,0.0
1502927596.0,286046996.6,P,1.2
1502927615.8,286047001.1,N,1.8
1502927635.6,286047001.2,N,1.9
1502927655.5,286046998.4,N,1.7
1502927675.3,286046998.4,N,1.6
1502927695.1,286046998.7,N,1.5
1502927715.9,286046996.9,N,1.6
1502927735.7,286046999.1,N,1.5
1502927755.6,286046999.2,N,1.4
1502927775.4,286046998.9,N,1.4
1502927795.2,286046999.5,N,1.3
1502927815.1,286046998.7,N,1.3
1502927816.0,286046998.7,N,1.2
1502927835.8,286046999.2,N,1.2
1502927855.7,286046996.5,Y,0.0
1502927875.5,286046998.4,P,0.3
1502927895.3,286046998.9,P,0.2
1502927915.2,286046999.0,P,0.2
1502927935.0,286046999.4,N,0.3
1502927935.9,286046999.4,N,0.3
1502927955.7,286046997.2,Y,0.0
1502927975.6,286046998.6,P,0.2
1502927995.4,286046999.0,P,0.2
